• In Schweiz
  • Länderverzeichnis
  • Für 7 Tage
  • Wassertemperatur
  • Satellitenkarten
  • Wetterkarte
  • Widgets
  • user-avatar
    Anmelden

    Stündliche Wetter Maidstone

    Heute, 18 Oktober, Donnerstag

    Zeit Temperatur Niederschläge Wind Luftdruck Luftfeuchtigkeit
    00:00 +12°C° 0 mm 4 m/S 766 mmHg 86%
    01:00 +12°C° 0 mm 5 m/S 766 mmHg 87%
    02:00 +12°C° 0 mm 5 m/S 766 mmHg 87%
    03:00 +10°C° 0 mm 5 m/S 766 mmHg 87%
    04:00 +10°C° 0 mm 5 m/S 766 mmHg 87%
    05:00 +10°C° 0 mm 5 m/S 766 mmHg 87%
    06:00 +10°C° 0 mm 5 m/S 766 mmHg 86%
    07:00 +12°C° 0 mm 5 m/S 766 mmHg 82%
    08:00 +13°C° 0 mm 6 m/S 767 mmHg 78%
    09:00 +13°C° 0 mm 6 m/S 767 mmHg 74%
    10:00 +14°C° 0 mm 6 m/S 767 mmHg 70%
    11:00 +15°C° 0 mm 6 m/S 767 mmHg 67%
    12:00 +16°C° 0 mm 6 m/S 767 mmHg 64%
    13:00 +16°C° 0 mm 6 m/S 767 mmHg 64%
    14:00 +15°C° 0 mm 6 m/S 767 mmHg 63%
    15:00 +15°C° 0 mm 6 m/S 766 mmHg 63%
    16:00 +14°C° 0 mm 5 m/S 766 mmHg 68%
    17:00 +13°C° 0 mm 5 m/S 767 mmHg 72%
    18:00 +12°C° 0 mm 5 m/S 767 mmHg 76%
    19:00 +12°C° 0 mm 5 m/S 767 mmHg 78%
    20:00 +12°C° 0 mm 5 m/S 767 mmHg 80%
    21:00 +11°C° 0 mm 4 m/S 767 mmHg 82%
    22:00 +11°C° 0 mm 4 m/S 767 mmHg 84%
    23:00 +11°C° 0 mm 4 m/S 767 mmHg 85%

    Morgen, 19 Oktober, Freitag

    Zeit Temperatur Niederschläge Wind Luftdruck Luftfeuchtigkeit
    00:00 +11°C° 0 mm 3 m/S 767 mmHg 87%
    01:00 +11°C° 0 mm 3 m/S 767 mmHg 88%
    02:00 +10°C° 0 mm 3 m/S 767 mmHg 89%
    03:00 +10°C° 0 mm 3 m/S 767 mmHg 89%
    04:00 +10°C° 0 mm 3 m/S 767 mmHg 90%
    05:00 +10°C° 0 mm 3 m/S 767 mmHg 90%
    06:00 +10°C° 0 mm 3 m/S 767 mmHg 90%
    07:00 +11°C° 0 mm 3 m/S 767 mmHg 86%
    08:00 +12°C° 0 mm 3 m/S 767 mmHg 82%
    09:00 +13°C° 0 mm 3 m/S 767 mmHg 78%
    10:00 +14°C° 0 mm 3 m/S 767 mmHg 73%
    11:00 +16°C° 0 mm 3 m/S 768 mmHg 68%
    12:00 +17°C° 0 mm 3 m/S 768 mmHg 63%
    13:00 +17°C° 0 mm 3 m/S 767 mmHg 61%
    14:00 +17°C° 0 mm 3 m/S 767 mmHg 60%
    15:00 +17°C° 0 mm 3 m/S 767 mmHg 59%
    16:00 +16°C° 0 mm 3 m/S 768 mmHg 64%
    17:00 +15°C° 0 mm 2 m/S 768 mmHg 68%
    18:00 +14°C° 0 mm 2 m/S 768 mmHg 73%
    19:00 +13°C° 0 mm 2 m/S 768 mmHg 76%
    20:00 +13°C° 0 mm 2 m/S 769 mmHg 78%
    21:00 +12°C° 0 mm 2 m/S 769 mmHg 80%
    22:00 +12°C° 0 mm 2 m/S 769 mmHg 81%
    23:00 +12°C° 0 mm 2 m/S 769 mmHg 82%

    übermorgen, 20 Oktober, Samstag

    Zeit Temperatur Niederschläge Wind Luftdruck Luftfeuchtigkeit
    00:00 +12°C° 0 mm 2 m/S 770 mmHg 83%
    01:00 +12°C° 0 mm 2 m/S 770 mmHg 84%
    02:00 +11°C° 0 mm 1 m/S 770 mmHg 84%
    03:00 +11°C° 0 mm 1 m/S 770 mmHg 85%
    04:00 +11°C° 0 mm 1 m/S 770 mmHg 85%
    05:00 +11°C° 0 mm 1 m/S 770 mmHg 86%
    06:00 +11°C° 0 mm 1 m/S 770 mmHg 86%
    07:00 +12°C° 0 mm 1 m/S 771 mmHg 81%
    08:00 +13°C° 0 mm 1 m/S 771 mmHg 77%
    09:00 +14°C° 0 mm 1 m/S 772 mmHg 72%
    10:00 +15°C° 0 mm 1 m/S 772 mmHg 67%
    11:00 +18°C° 0 mm 1 m/S 772 mmHg 61%
    12:00 +19°C° 0 mm 1 m/S 772 mmHg 56%
    13:00 +19°C° 0 mm 1 m/S 772 mmHg 55%
    14:00 +19°C° 0 mm 1 m/S 771 mmHg 54%
    15:00 +19°C° 0 mm 1 m/S 771 mmHg 53%
    16:00 +18°C° 0 mm 1 m/S 771 mmHg 59%
    17:00 +16°C° 0 mm 1 m/S 771 mmHg 64%
    18:00 +14°C° 0 mm 1 m/S 771 mmHg 69%
    19:00 +14°C° 0 mm 1 m/S 771 mmHg 72%
    20:00 +14°C° 0 mm 1 m/S 771 mmHg 74%
    21:00 +13°C° 0 mm 2 m/S 771 mmHg 76%
    22:00 +13°C° 0 mm 1 m/S 771 mmHg 77%
    23:00 +13°C° 0 mm 1 m/S 771 mmHg 77%

    21 Oktober, Sonntag

    Zeit Temperatur Niederschläge Wind Luftdruck Luftfeuchtigkeit
    00:00 +12°C° 0 mm 1 m/S 771 mmHg 78%
    01:00 +12°C° 0 mm 1 m/S 771 mmHg 78%
    02:00 +12°C° 0 mm 1 m/S 770 mmHg 78%
    03:00 +12°C° 0 mm 1 m/S 770 mmHg 79%
    04:00 +12°C° 0 mm 1 m/S 770 mmHg 79%
    05:00 +12°C° 0 mm 1 m/S 770 mmHg 79%
    06:00 +11°C° 0 mm 1 m/S 770 mmHg 79%
    07:00 +13°C° 0 mm 1 m/S 770 mmHg 74%
    08:00 +14°C° 0 mm 1 m/S 770 mmHg 69%
    09:00 +15°C° 0 mm 1 m/S 770 mmHg 64%
    10:00 +16°C° 0 mm 1 m/S 769 mmHg 59%
    11:00 +18°C° 0 mm 1 m/S 769 mmHg 54%
    12:00 +18°C° 0 mm 2 m/S 769 mmHg 49%
    13:00 +19°C° 0 mm 2 m/S 769 mmHg 49%
    14:00 +19°C° 0 mm 2 m/S 769 mmHg 49%
    15:00 +19°C° 0 mm 2 m/S 768 mmHg 50%
    16:00 +18°C° 0 mm 2 m/S 768 mmHg 55%
    17:00 +16°C° 0 mm 2 m/S 768 mmHg 61%
    18:00 +15°C° 0 mm 2 m/S 768 mmHg 67%
    19:00 +15°C° 0 mm 2 m/S 769 mmHg 70%
    20:00 +14°C° 0 mm 2 m/S 769 mmHg 73%
    21:00 +13°C° 0 mm 3 m/S 769 mmHg 77%
    22:00 +13°C° 0 mm 3 m/S 769 mmHg 81%
    23:00 +13°C° 0 mm 4 m/S 770 mmHg 85%

    22 Oktober, Montag

    Zeit Temperatur Niederschläge Wind Luftdruck Luftfeuchtigkeit
    00:00 +13°C° 0 mm 5 m/S 770 mmHg 89%
    01:00 +13°C° 0 mm 5 m/S 770 mmHg 87%
    02:00 +13°C° 0 mm 6 m/S 771 mmHg 84%
    03:00 +13°C° 0 mm 6 m/S 771 mmHg 81%
    04:00 +11°C° 0 mm 7 m/S 771 mmHg 80%
    05:00 +11°C° 0 mm 7 m/S 772 mmHg 79%
    06:00 +10°C° 0 mm 7 m/S 772 mmHg 77%
    07:00 +10°C° 0 mm 7 m/S 773 mmHg 75%
    08:00 +10°C° 0 mm 7 m/S 773 mmHg 73%
    09:00 +11°C° 0 mm 7 m/S 774 mmHg 71%
    10:00 +11°C° 0 mm 7 m/S 774 mmHg 67%
    11:00 +13°C° 0 mm 6 m/S 774 mmHg 62%
    12:00 +14°C° 0 mm 6 m/S 774 mmHg 58%
    13:00 +14°C° 0 mm 6 m/S 774 mmHg 55%
    14:00 +13°C° 0 mm 6 m/S 774 mmHg 53%
    15:00 +13°C° 0 mm 6 m/S 774 mmHg 50%
    16:00 +12°C° 0 mm 5 m/S 774 mmHg 53%
    17:00 +10°C° 0 mm 5 m/S 775 mmHg 56%
    18:00 +9°C° 0 mm 5 m/S 775 mmHg 60%
    19:00 +10°C° 0 mm 4 m/S 775 mmHg 62%
    20:00 +8°C° 0 mm 4 m/S 775 mmHg 65%
    21:00 +8°C° 0 mm 4 m/S 775 mmHg 68%
    22:00 +8°C° 0 mm 4 m/S 775 mmHg 70%
    23:00 +8°C° 0 mm 4 m/S 774 mmHg 73%

    23 Oktober, Dienstag

    Zeit Temperatur Niederschläge Wind Luftdruck Luftfeuchtigkeit
    00:00 +7°C° 0 mm 5 m/S 774 mmHg 75%
    01:00 +7°C° 0 mm 5 m/S 774 mmHg 77%
    02:00 +7°C° 0 mm 5 m/S 773 mmHg 79%
    03:00 +7°C° 0 mm 5 m/S 773 mmHg 81%
    04:00 +7°C° 0 mm 5 m/S 772 mmHg 82%
    05:00 +7°C° 0 mm 6 m/S 772 mmHg 83%
    06:00 +7°C° 0 mm 6 m/S 771 mmHg 83%
    07:00 +8°C° 0 mm 6 m/S 771 mmHg 80%
    08:00 +9°C° 0 mm 7 m/S 771 mmHg 76%
    09:00 +10°C° 0 mm 7 m/S 771 mmHg 72%
    10:00 +11°C° 0 mm 7 m/S 771 mmHg 68%
    11:00 +12°C° 0 mm 7 m/S 770 mmHg 65%
    12:00 +14°C° 0 mm 7 m/S 770 mmHg 61%
    13:00 +14°C° 0 mm 7 m/S 770 mmHg 61%
    14:00 +14°C° 0 mm 6 m/S 769 mmHg 62%
    15:00 +14°C° 0 mm 6 m/S 769 mmHg 62%
    16:00 +13°C° 0 mm 6 m/S 769 mmHg 64%
    17:00 +11°C° 0 mm 6 m/S 769 mmHg 67%
    18:00 +11°C° 0 mm 6 m/S 769 mmHg 69%
    19:00 +11°C° 0 mm 6 m/S 770 mmHg 71%
    20:00 +10°C° 0 mm 6 m/S 770 mmHg 73%
    21:00 +10°C° 0 mm 6 m/S 770 mmHg 74%
    22:00 +10°C° 0 mm 6 m/S 770 mmHg 76%
    23:00 +10°C° 0 mm 6 m/S 770 mmHg 78%
    Mehr zeigen